Weather History for Troy, MI

Change the Weather History Date:

Sunday, December 8, 2013

  Actual Average (KDET) Record (KDET)
Temperature  
Mean Temperature 22 °F -  
Max Temperature 29 °F 40 °F 64 °F (1966)
Min Temperature 14 °F 28 °F 11 °F (1977)
Degree Days  
Heating Degree Days 44    
Moisture  
Dew Point 12 °F    
Average Humidity 71    
Maximum Humidity 93    
Minimum Humidity 55    
Precipitation  
Precipitation 0.00 in - - ()
Sea Level Pressure  
Sea Level Pressure 30.38 in    
Wind  
Wind Speed 4 mph (ENE)    
Max Wind Speed 13 mph    
Max Gust Speed 21 mph    
Visibility 9 miles    
Events Snow    
Averages and records for this station are not official NWS values.
T = Trace of Precipitation, MM = Missing Value Source: NWS Daily Summary

Daily Weather History Graph

Daily Weather History Graph

Search for Another Location

Airport:

Trip Planner

Search our weather history database for the weather conditions in past years. The results will help you decide how hot, cold, wet, or windy it might be!

Date:

Astronomy

Dec. 08, 2013 Rise Set
Actual Time 7:50 AM EST 4:59 PM EST
Civil Twilight 7:18 AM EST 5:31 PM EST
Nautical Twilight 6:42 AM EST 6:06 PM EST
Astronomical Twilight 6:08 AM EST 6:40 PM EST
Moon 12:03 PM EST (12/8) 11:54 PM EST (12/8)
Length of Visible Light 10h 13m
Length of Day
9h 09m
Waxing Crescent, 40% of the Moon is Illuminated
Dec 8
Waxing Crescent
Dec 9
First Quarter
Dec 17
Full
Dec 25
Last Quarter
Jan 1
New

Hourly Weather History & Observations

Time (EST) Temp. Windchill Dew Point Humidity Pressure Visibility Wind Dir Wind Speed Gust Speed Precip Events Conditions
12:13 AM 17.1 °F - 7.2 °F 65% 30.60 in 10.0 mi Calm Calm - N/A   Clear
12:33 AM 16.7 °F - 6.8 °F 65% 30.59 in 10.0 mi Calm Calm - N/A   Clear
12:53 AM 16.5 °F - 7.0 °F 66% 30.58 in 10.0 mi Calm Calm - N/A   Clear
1:13 AM 16.3 °F - 7.2 °F 67% 30.57 in 10.0 mi Calm Calm - N/A   Clear
1:34 AM 15.6 °F - 6.8 °F 68% 30.57 in 10.0 mi Calm Calm - N/A   Clear
1:53 AM 15.8 °F - 7.2 °F 69% 30.57 in 10.0 mi Calm Calm - N/A   Clear
2:14 AM 14.9 °F - 7.0 °F 71% 30.58 in 10.0 mi Calm Calm - N/A   Clear
2:35 AM 14.9 °F - 5.9 °F 68% 30.58 in 10.0 mi Calm Calm - N/A   Clear
2:51 AM 14.9 °F - 5.9 °F 68% 30.58 in 10.0 mi Calm Calm - N/A   Clear
3:14 AM 14.9 °F - 6.3 °F 69% 30.58 in 10.0 mi Calm Calm - N/A   Clear
3:35 AM 14.9 °F - 6.3 °F 69% 30.58 in 10.0 mi Calm Calm - N/A   Clear
3:54 AM 14.9 °F - 6.4 °F 69% 30.57 in 10.0 mi Calm Calm - N/A   Clear
4:12 AM 14.9 °F - 6.1 °F 68% 30.57 in 10.0 mi Calm Calm - N/A   Clear
4:32 AM 14.9 °F - 6.1 °F 68% 30.57 in 10.0 mi Calm Calm - N/A   Clear
4:54 AM 14.9 °F - 6.3 °F 69% 30.58 in 10.0 mi Calm Calm - N/A   Clear
5:14 AM 14.7 °F - 6.3 °F 69% 30.56 in 10.0 mi Calm Calm - N/A   Clear
5:34 AM 14.9 °F 9.2 °F 6.3 °F 69% 30.56 in 10.0 mi North 3.5 mph - N/A   Clear
5:53 AM 14.7 °F 7.3 °F 5.9 °F 68% 30.54 in 10.0 mi North 4.6 mph - N/A   Clear
6:13 AM 14.7 °F - 5.9 °F 68% 30.55 in 10.0 mi Calm Calm - N/A   Clear
6:34 AM 14.9 °F - 6.4 °F 69% 30.55 in 10.0 mi Calm Calm - N/A   Clear
6:55 AM 14.9 °F - 5.9 °F 68% 30.55 in 10.0 mi Calm Calm - N/A   Clear
7:15 AM 14.9 °F 7.5 °F 5.9 °F 68% 30.54 in 10.0 mi ENE 4.6 mph - N/A   Clear
7:33 AM 14.9 °F 6.1 °F 5.9 °F 68% 30.54 in 10.0 mi NE 5.8 mph - N/A   Clear
7:54 AM 14.9 °F 7.5 °F 5.9 °F 68% 30.54 in 10.0 mi NE 4.6 mph - N/A   Clear
8:14 AM 15.3 °F - 5.9 °F 67% 30.53 in 10.0 mi Calm Calm - N/A   Clear
8:34 AM 15.3 °F 5.4 °F 4.8 °F 63% 30.53 in 10.0 mi ENE 6.9 mph - N/A   Clear
8:54 AM 15.4 °F 6.8 °F 4.8 °F 63% 30.53 in 10.0 mi ENE 5.8 mph - N/A   Clear
9:14 AM 15.6 °F 5.9 °F 4.6 °F 62% 30.52 in 10.0 mi ENE 6.9 mph - N/A   Clear
9:33 AM 15.8 °F 5.1 °F 4.1 °F 60% 30.51 in 10.0 mi ENE 8.1 mph - N/A   Clear
9:54 AM 16.3 °F 7.8 °F 3.7 °F 58% 30.52 in 10.0 mi ENE 5.8 mph - N/A   Clear
10:14 AM 17.4 °F 8.0 °F 4.1 °F 56% 30.51 in 10.0 mi NE 6.9 mph - N/A   Scattered Clouds
10:34 AM 17.6 °F 7.3 °F 3.7 °F 55% 30.49 in 10.0 mi NE 8.1 mph - N/A   Mostly Cloudy
10:55 AM 18.3 °F 10.2 °F 4.6 °F 55% 30.49 in 10.0 mi ENE 5.8 mph - N/A   Overcast
11:14 AM 18.9 °F 8.8 °F 5.4 °F 56% 30.48 in 10.0 mi ENE 8.1 mph - N/A   Overcast
11:35 AM 19.2 °F 10.2 °F 6.4 °F 58% 30.47 in 10.0 mi NE 6.9 mph - N/A   Overcast
11:55 AM 20.1 °F 11.3 °F 6.8 °F 56% 30.45 in 10.0 mi ENE 6.9 mph - N/A   Overcast
12:15 PM 20.3 °F 13.8 °F 7.2 °F 57% 30.44 in 10.0 mi NE 4.6 mph - N/A   Overcast
12:35 PM 21.0 °F 13.4 °F 7.7 °F 56% 30.44 in 10.0 mi ENE 5.8 mph - N/A   Overcast
12:55 PM 21.2 °F 11.7 °F 8.1 °F 57% 30.41 in 10.0 mi ENE 8.1 mph - N/A   Overcast
1:15 PM 22.1 °F 13.7 °F 8.6 °F 56% 30.40 in 10.0 mi ENE 6.9 mph - N/A   Overcast
1:34 PM 22.6 °F 12.6 °F 9.3 °F 57% 30.38 in 10.0 mi NNE 9.2 mph - N/A   Overcast
1:55 PM 23.0 °F 14.7 °F 10.6 °F 59% 30.37 in 7.0 mi NE 6.9 mph - N/A Snow Light Snow
2:15 PM 23.0 °F 13.9 °F 11.3 °F 61% 30.35 in 10.0 mi East 8.1 mph - N/A   Overcast
2:35 PM 23.0 °F 14.7 °F 13.6 °F 67% 30.35 in 1.0 mi ENE 6.9 mph - N/A Snow Light Snow
2:55 PM 23.4 °F 15.2 °F 14.7 °F 70% 30.33 in 5.0 mi ENE 6.9 mph - N/A   Haze
3:14 PM 23.9 °F 15.0 °F 15.4 °F 70% 30.32 in 10.0 mi ENE 8.1 mph - N/A   Overcast
3:35 PM 24.3 °F 13.3 °F 16.7 °F 73% 30.31 in 2.0 mi ENE 11.5 mph - N/A Snow Light Snow
3:55 PM 24.6 °F 13.2 °F 17.6 °F 75% 30.30 in 3.0 mi ENE 12.7 mph - N/A Snow Light Snow
4:15 PM 24.8 °F 14.6 °F 18.3 °F 76% 30.28 in 7.0 mi ENE 10.4 mph - N/A Snow Light Snow
4:35 PM 25.2 °F 15.1 °F 18.3 °F 75% 30.27 in 10.0 mi ENE 10.4 mph - N/A   Overcast
4:54 PM 25.2 °F 13.9 °F 18.1 °F 75% 30.25 in 10.0 mi East 12.7 mph 18.4 mph N/A   Overcast
5:15 PM 25.3 °F 15.3 °F 18.5 °F 75% 30.24 in 10.0 mi East 10.4 mph 18.4 mph N/A   Overcast
5:34 PM 25.5 °F 14.9 °F 18.9 °F 76% 30.23 in 7.0 mi ENE 11.5 mph 19.6 mph N/A Snow Light Snow
5:55 PM 25.5 °F 14.3 °F 19.2 °F 77% 30.22 in 7.0 mi East 12.7 mph 20.7 mph N/A Snow Light Snow
6:15 PM 25.7 °F 15.7 °F 19.8 °F 78% 30.22 in 10.0 mi East 10.4 mph - N/A   Overcast
6:34 PM 25.7 °F 15.7 °F 20.1 °F 79% 30.22 in 10.0 mi ENE 10.4 mph 16.1 mph N/A   Overcast
6:55 PM 26.1 °F 15.0 °F 20.3 °F 79% 30.21 in 7.0 mi East 12.7 mph - N/A Snow Light Snow
7:14 PM 26.2 °F 16.4 °F 21.2 °F 81% 30.19 in 7.0 mi East 10.4 mph 17.3 mph N/A Snow Light Snow
7:35 PM 26.2 °F 15.2 °F 21.6 °F 82% 30.17 in 10.0 mi ENE 12.7 mph - N/A   Overcast
7:54 PM 26.4 °F 16.0 °F 21.6 °F 82% 30.15 in 10.0 mi East 11.5 mph 17.3 mph N/A   Overcast
8:15 PM 26.6 °F 15.7 °F 21.6 °F 81% 30.14 in 10.0 mi East 12.7 mph 19.6 mph N/A   Overcast
8:35 PM 26.6 °F 18.2 °F 21.9 °F 82% 30.12 in 10.0 mi East 8.1 mph 16.1 mph N/A   Overcast
8:55 PM 27.3 °F 17.1 °F 22.6 °F 83% 30.11 in 10.0 mi East 11.5 mph - N/A   Overcast
9:15 PM 27.5 °F 20.2 °F 22.6 °F 82% 30.09 in 10.0 mi East 6.9 mph 16.1 mph N/A   Overcast
9:35 PM 27.9 °F 19.1 °F 22.8 °F 81% 30.08 in 10.0 mi East 9.2 mph 16.1 mph N/A   Overcast
9:55 PM 27.9 °F 17.8 °F 23.5 °F 84% 30.07 in 5.0 mi East 11.5 mph - N/A Snow Light Snow
10:15 PM 27.5 °F 22.2 °F 24.6 °F 89% 30.07 in 3.0 mi East 4.6 mph - N/A Snow Light Snow
10:35 PM 27.9 °F 21.5 °F 25.5 °F 91% 30.05 in 2.0 mi East 5.8 mph - N/A Snow Light Snow
10:54 PM 28.4 °F 21.2 °F 26.6 °F 93% 30.04 in 2.5 mi ESE 6.9 mph - N/A Snow Light Snow
11:15 PM 29.3 °F 23.2 °F 27.1 °F 92% 30.04 in 10.0 mi SE 5.8 mph - N/A   Overcast
11:34 PM 29.3 °F 24.3 °F 27.3 °F 92% 30.02 in 7.0 mi ESE 4.6 mph - N/A   Overcast
11:55 PM 29.3 °F 24.3 °F 27.5 °F 93% 30.01 in 4.0 mi ESE 4.6 mph - N/A Snow Light Snow